When you browse on this site, cookies collect data to enhance your experience and personalize the content and advertising you see.
Visit our Privacy Policy to learn more. By continuing to use the site, you agree to this use of cookies and data.
  • Em Portugal
  • Lista de países
  • Para 7 dias
  • Temperatura da água
  • Mapa do tempo
  • Widgets de tempo
  • user-avatar
    Iniciar Sessão

    Previsão horária em Mozir

    Hoje, 16 Novembro, Sábado

    Tempo Temperatura Precipitação Vento Pressão Humidade
    00:00 +2°C° 0 mm 3 m/s 750 mmHg 83%
    01:00 +3°C° 0 mm 3 m/s 751 mmHg 83%
    02:00 +3°C° 0 mm 3 m/s 751 mmHg 82%
    03:00 +3°C° 0 mm 3 m/s 751 mmHg 84%
    04:00 +3°C° 0 mm 3 m/s 751 mmHg 85%
    05:00 +3°C° 0 mm 3 m/s 751 mmHg 87%
    06:00 +3°C° 0 mm 3 m/s 751 mmHg 89%
    07:00 +3°C° 0 mm 3 m/s 751 mmHg 90%
    08:00 +3°C° 0 mm 3 m/s 751 mmHg 92%
    09:00 +4°C° 0 mm 3 m/s 752 mmHg 89%
    10:00 +7°C° 0 mm 3 m/s 752 mmHg 85%
    11:00 +7°C° 0 mm 4 m/s 752 mmHg 81%
    12:00 +8°C° 0 mm 4 m/s 752 mmHg 83%
    13:00 +8°C° 0 mm 4 m/s 752 mmHg 85%
    14:00 +10°C° 0 mm 4 m/s 752 mmHg 86%
    15:00 +10°C° 0 mm 4 m/s 752 mmHg 87%
    16:00 +10°C° 0 mm 4 m/s 752 mmHg 88%
    17:00 +10°C° 0 mm 4 m/s 752 mmHg 90%
    18:00 +10°C° 0 mm 4 m/s 752 mmHg 89%
    19:00 +10°C° 0 mm 3 m/s 753 mmHg 89%
    20:00 +9°C° 0 mm 3 m/s 753 mmHg 89%
    21:00 +9°C° 0 mm 3 m/s 753 mmHg 90%
    22:00 +9°C° 0 mm 3 m/s 753 mmHg 90%
    23:00 +8°C° 0 mm 3 m/s 753 mmHg 91%

    Amanhã, 17 Novembro, Domingo

    Tempo Temperatura Precipitação Vento Pressão Humidade
    00:00 +8°C° 0 mm 3 m/s 753 mmHg 92%
    01:00 +7°C° 0 mm 3 m/s 753 mmHg 94%
    02:00 +7°C° 0 mm 3 m/s 753 mmHg 95%
    03:00 +7°C° 0 mm 3 m/s 753 mmHg 96%
    04:00 +7°C° 0 mm 3 m/s 753 mmHg 96%
    05:00 +7°C° 0 mm 3 m/s 753 mmHg 96%
    06:00 +7°C° 0 mm 3 m/s 753 mmHg 96%
    07:00 +5°C° 0 mm 3 m/s 754 mmHg 97%
    08:00 +5°C° 0 mm 3 m/s 754 mmHg 97%
    09:00 +7°C° 0 mm 3 m/s 754 mmHg 93%
    10:00 +8°C° 0 mm 3 m/s 754 mmHg 89%
    11:00 +9°C° 0 mm 3 m/s 754 mmHg 85%
    12:00 +10°C° 0 mm 4 m/s 754 mmHg 82%
    13:00 +10°C° 0 mm 4 m/s 754 mmHg 80%
    14:00 +11°C° 0 mm 4 m/s 754 mmHg 77%
    15:00 +10°C° 0 mm 4 m/s 754 mmHg 80%
    16:00 +9°C° 0 mm 3 m/s 753 mmHg 83%
    17:00 +8°C° 0 mm 3 m/s 753 mmHg 86%
    18:00 +7°C° 0 mm 3 m/s 753 mmHg 85%
    19:00 +7°C° 0 mm 3 m/s 753 mmHg 84%
    20:00 +5°C° 0 mm 3 m/s 753 mmHg 84%
    21:00 +5°C° 0 mm 3 m/s 753 mmHg 83%
    22:00 +5°C° 0 mm 3 m/s 753 mmHg 82%
    23:00 +5°C° 0 mm 3 m/s 753 mmHg 81%

    Depois de amanhã, 18 Novembro, Segunda-feira

    Tempo Temperatura Precipitação Vento Pressão Humidade
    00:00 +4°C° 0 mm 3 m/s 753 mmHg 83%
    01:00 +4°C° 0 mm 3 m/s 753 mmHg 85%
    02:00 +3°C° 0 mm 3 m/s 753 mmHg 86%
    03:00 +3°C° 0 mm 3 m/s 752 mmHg 88%
    04:00 +2°C° 0 mm 3 m/s 752 mmHg 90%
    05:00 +2°C° 0 mm 3 m/s 752 mmHg 92%
    06:00 +2°C° 0 mm 3 m/s 752 mmHg 93%
    07:00 +1°C° 0 mm 3 m/s 752 mmHg 94%
    08:00 +1°C° 0 mm 3 m/s 752 mmHg 95%
    09:00 +2°C° 0 mm 3 m/s 752 mmHg 89%
    10:00 +3°C° 0 mm 4 m/s 752 mmHg 84%
    11:00 +5°C° 0 mm 4 m/s 752 mmHg 79%
    12:00 +5°C° 0 mm 4 m/s 751 mmHg 77%
    13:00 +6°C° 0 mm 4 m/s 751 mmHg 75%
    14:00 +6°C° 0 mm 4 m/s 751 mmHg 73%
    15:00 +5°C° 0 mm 4 m/s 751 mmHg 78%
    16:00 +4°C° 0 mm 4 m/s 751 mmHg 84%
    17:00 +3°C° 0 mm 3 m/s 750 mmHg 89%
    18:00 +3°C° 0 mm 3 m/s 751 mmHg 91%
    19:00 +3°C° 0 mm 3 m/s 751 mmHg 92%
    20:00 +3°C° 0 mm 3 m/s 751 mmHg 93%
    21:00 +3°C° 0 mm 3 m/s 751 mmHg 94%
    22:00 +2°C° 0 mm 3 m/s 751 mmHg 94%
    23:00 +2°C° 0 mm 3 m/s 751 mmHg 94%

    19 Novembro, Terça-feira

    Tempo Temperatura Precipitação Vento Pressão Humidade
    00:00 +2°C° 0 mm 3 m/s 751 mmHg 94%
    01:00 +2°C° 0 mm 3 m/s 751 mmHg 94%
    02:00 +3°C° 0 mm 3 m/s 751 mmHg 94%
    03:00 +4°C° 0 mm 2 m/s 751 mmHg 94%
    04:00 +4°C° 0 mm 2 m/s 751 mmHg 94%
    05:00 +5°C° 0 mm 2 m/s 751 mmHg 94%
    06:00 +5°C° 0 mm 2 m/s 752 mmHg 94%
    07:00 +5°C° 0 mm 2 m/s 752 mmHg 95%
    08:00 +6°C° 0 mm 2 m/s 752 mmHg 95%
    09:00 +6°C° 0 mm 2 m/s 753 mmHg 92%
    10:00 +7°C° 0 mm 2 m/s 753 mmHg 89%
    11:00 +8°C° 0 mm 2 m/s 753 mmHg 86%
    12:00 +9°C° 0 mm 2 m/s 753 mmHg 84%
    13:00 +9°C° 0 mm 2 m/s 753 mmHg 83%
    14:00 +10°C° 0 mm 2 m/s 753 mmHg 82%
    15:00 +9°C° 0 mm 2 m/s 753 mmHg 85%
    16:00 +8°C° 0 mm 2 m/s 753 mmHg 88%
    17:00 +7°C° 0 mm 2 m/s 753 mmHg 91%
    18:00 +7°C° 0 mm 2 m/s 753 mmHg 91%
    19:00 +5°C° 0 mm 3 m/s 753 mmHg 91%
    20:00 +5°C° 0 mm 3 m/s 753 mmHg 92%
    21:00 +5°C° 0 mm 3 m/s 754 mmHg 90%
    22:00 +5°C° 0 mm 3 m/s 754 mmHg 88%
    23:00 +5°C° 0 mm 3 m/s 754 mmHg 87%

    20 Novembro, Quarta-feira

    Tempo Temperatura Precipitação Vento Pressão Humidade
    00:00 +5°C° 0 mm 3 m/s 754 mmHg 86%
    01:00 +5°C° 0 mm 3 m/s 754 mmHg 84%
    02:00 +5°C° 0 mm 3 m/s 754 mmHg 83%
    03:00 +5°C° 0 mm 4 m/s 754 mmHg 82%
    04:00 +4°C° 0 mm 4 m/s 754 mmHg 82%
    05:00 +4°C° 0 mm 4 m/s 754 mmHg 81%
    06:00 +4°C° 0 mm 4 m/s 754 mmHg 82%
    07:00 +2°C° 0 mm 5 m/s 754 mmHg 83%
    08:00 +2°C° 0 mm 5 m/s 755 mmHg 84%
    09:00 +2°C° 0 mm 5 m/s 755 mmHg 85%
    10:00 +2°C° 0 mm 5 m/s 755 mmHg 85%
    11:00 +1°C° 0 mm 5 m/s 756 mmHg 85%
    12:00 +2°C° 0 mm 5 m/s 755 mmHg 85%
    13:00 +2°C° 0 mm 5 m/s 755 mmHg 84%
    14:00 +2°C° 0 mm 5 m/s 755 mmHg 83%
    15:00 +2°C° 0 mm 5 m/s 755 mmHg 83%
    16:00 +2°C° 0 mm 6 m/s 755 mmHg 82%
    17:00 +2°C° 0 mm 6 m/s 755 mmHg 82%
    18:00 +2°C° 0 mm 6 m/s 755 mmHg 81%
    19:00 +2°C° 0 mm 6 m/s 755 mmHg 80%
    20:00 +2°C° 0 mm 6 m/s 756 mmHg 80%
    21:00 +2°C° 0 mm 6 m/s 756 mmHg 79%
    22:00 +2°C° 0 mm 6 m/s 756 mmHg 79%
    23:00 +2°C° 0 mm 6 m/s 756 mmHg 78%

    21 Novembro, Quinta-feira

    Tempo Temperatura Precipitação Vento Pressão Humidade
    00:00 +1°C° 0 mm 6 m/s 756 mmHg 76%
    01:00 +1°C° 0 mm 6 m/s 756 mmHg 74%
    02:00 -1°C° 0 mm 6 m/s 756 mmHg 72%
    03:00 -1°C° 0 mm 6 m/s 756 mmHg 71%
    04:00 -2°C° 0 mm 6 m/s 756 mmHg 69%
    05:00 -2°C° 0 mm 6 m/s 756 mmHg 68%
    06:00 -3°C° 0 mm 6 m/s 756 mmHg 64%
    07:00 -4°C° 0 mm 6 m/s 756 mmHg 59%
    08:00 -4°C° 0 mm 6 m/s 756 mmHg 55%
    09:00 -4°C° 0 mm 6 m/s 756 mmHg 50%
    10:00 -3°C° 0 mm 6 m/s 756 mmHg 45%
    11:00 -3°C° 0 mm 7 m/s 756 mmHg 41%
    12:00 -3°C° 0 mm 7 m/s 756 mmHg 39%
    13:00 -3°C° 0 mm 6 m/s 755 mmHg 38%
    14:00 -2°C° 0 mm 6 m/s 755 mmHg 37%
    15:00 -3°C° 0 mm 6 m/s 755 mmHg 38%
    16:00 -3°C° 0 mm 6 m/s 755 mmHg 39%
    17:00 -4°C° 0 mm 6 m/s 755 mmHg 40%
    18:00 -3°C° 0 mm 6 m/s 755 mmHg 41%
    19:00 -3°C° 0 mm 6 m/s 755 mmHg 42%
    20:00 -3°C° 0 mm 6 m/s 755 mmHg 43%
    21:00 -3°C° 0 mm 6 m/s 755 mmHg 43%
    22:00 -3°C° 0 mm 6 m/s 755 mmHg 44%
    23:00 -3°C° 0 mm 6 m/s 755 mmHg 45%
    Mostrar mais